sat.trackr.live / text

‹ back to catalog

STARLINK-32301

NORAD 61664 · 2024-193D

PAYLOAD ACTIVE UNKNOWN

§ Identity

Operator
Country
US
Launch date
2024-10-26
Launch site
AFETR
Launch vehicle
Mass (kg)
RCS (m²)

Purposes: comms

External: N2YO · Heavens-Above · Gunter

§ Orbital elements

Epoch: 2026-05-25T03:39:38.160000Z

Period
94.01 min
Inclination
53.1606°
Eccentricity
0.0001180
Mean motion
15.31706209 rev/d
Perigee alt
469.9 km
Apogee alt
471.5 km
Semi-major
6,848.9 km
B*
3.2582e-5
RAAN
95.8330°
Arg perigee
93.6092°
Mean anomaly
266.5044°
Rev number
8,823

§ Raw data

STARLINK-323011 61664U 24193D   26145.15252500  .00000646  00000+0  32582-4 0  99992 61664  53.1606  95.8330 0001180  93.6092 266.5044 15.31706209 88235

JSON: /api/v1/satellites/61664 · /tle

For live sub-satellite position, see the globe view (requires WebGL).

§ Visibility from observer

Set your observer location to see the next 7 days of passes ≥ 10°. The values pass through the URL so the page stays shareable.

No JS? Fill the form by hand. The geolocation button needs JavaScript.